Date;tvoc;eco2;light;bat;noise_dba;bar;pm_avg_1;pm_avg_10;pm_avg_2.5;h;t
2021-02-13T00:00:11Z;3733.0;3412.25;0.0;98.01694915254237;49.224716981132076;98.12547169811326;2.423076923076923;4.076923076923077;2.8076923076923075;64.54396226415092;-4.190377358490567
2021-02-13T01:00:31Z;1325.5471698113208;2137.9245283018868;0.0;98.01666666666667;49.137735849056604;98.15094339622641;1.830188679245283;3.7735849056603774;2.339622641509434;65.38056603773585;-4.608679245283019
2021-02-13T02:00:55Z;8.339622641509434;456.39622641509436;0.0;98.01694915254237;49.045769230769224;98.17153846153853;2.30188679245283;3.490566037735849;2.547169811320755;66.77538461538464;-4.902692307692305
2021-02-13T03:00:08Z;0.4716981132075472;404.1132075471698;0.0;98.0;49.284905660377355;98.2284905660377;3.673076923076923;7.6923076923076925;4.423076923076923;66.36264150943396;-5.088490566037738
2021-02-13T04:00:20Z;1.1153846153846154;409.40384615384613;0.0;98.01694915254237;49.066603773584895;98.28000000000004;3.69811320754717;6.9245283018867925;4.490566037735849;66.05886792452831;-5.298679245283018
2021-02-13T05:00:44Z;0.5;404.4230769230769;0.0;98.01666666666667;49.1956603773585;98.30867924528305;3.358490566037736;5.6415094339622645;3.830188679245283;65.6445283018868;-5.480188679245283
2021-02-13T06:00:57Z;1.0377358490566038;409.0566037735849;25.057692307692307;98.01694915254237;49.2021153846154;98.3465384615384;3.207547169811321;5.90566037735849;3.830188679245283;65.3428846153846;-5.65057692307692
2021-02-13T07:00:08Z;1.5961538461538463;412.38461538461536;172.54716981132074;98.08474576271186;49.920000000000016;98.37358490566032;3.1538461538461537;6.730769230769231;4.173076923076923;65.19000000000001;-5.583207547169811
2021-02-13T08:00:35Z;2.2264150943396226;416.811320754717;292.39622641509436;98.0677966101695;49.493773584905654;98.39396226415087;3.8679245283018866;5.754716981132075;4.679245283018868;62.65905660377358;-4.986415094339622
2021-02-13T09:01:05Z;1.3396226415094339;410.7358490566038;401.2549019607843;98.10169491525424;50.1186274509804;98.40098039215682;3.2641509433962264;5.169811320754717;3.9056603773584904;59.087058823529404;-4.01235294117647
2021-02-13T10:00:09Z;1.9019607843137254;414.45098039215685;1191.433962264151;98.10169491525424;50.473773584905665;98.39943396226411;3.0392156862745097;5.372549019607843;3.6470588235294117;52.37415094339625;-1.0896226415094339
2021-02-13T11:01:06Z;2.30188679245283;418.0188679245283;706.8846153846154;98.08474576271186;49.78038461538461;98.42096153846157;3.509433962264151;6.509433962264151;4.2075471698113205;51.894807692307694;-0.6940384615384616
2021-02-13T12:00:24Z;2.018867924528302;416.20754716981133;540.2264150943396;98.22033898305085;50.13603773584906;98.41471698113207;2.6153846153846154;4.076923076923077;3.269230769230769;52.88641509433964;-0.25301886792452843
2021-02-13T13:01:03Z;1.0576923076923077;409.8269230769231;316.4230769230769;98.20338983050847;49.657115384615366;98.4392307692307;2.8679245283018866;5.377358490566038;3.2641509433962264;53.61884615384615;-0.41038461538461546
2021-02-13T14:00:59Z;0.6226415094339622;405.75471698113205;279.0769230769231;98.11864406779661;50.98653846153846;98.46288461538452;3.3846153846153846;7.326923076923077;4.0;55.43999999999999;-0.9578846153846151
2021-02-13T15:00:32Z;3.1538461538461537;423.0;156.0;98.13793103448276;51.60075471698111;98.49264150943395;2.3461538461538463;4.903846153846154;3.1153846153846154;56.183773584905644;-1.2667924528301893
2021-02-13T16:01:01Z;2.69811320754717;420.3018867924528;35.78846153846154;98.26666666666667;50.639807692307684;98.54500000000006;1.8679245283018868;3.4716981132075473;2.452830188679245;56.059999999999995;-1.786923076923077
2021-02-13T17:00:23Z;1.2075471698113207;410.24528301886795;0.0;98.27118644067797;50.34905660377357;98.63113207547164;6.4423076923076925;8.307692307692308;7.076923076923077;56.572264150943404;-2.296603773584906
2021-02-13T18:00:43Z;1.2830188679245282;411.0566037735849;0.0;98.27118644067797;50.365192307692304;98.69596153846145;17.71698113207547;19.18867924528302;18.339622641509433;58.77961538461541;-2.741153846153846
2021-02-13T19:00:06Z;3.0576923076923075;422.96153846153845;0.0;98.23728813559322;50.59962264150944;98.76226415094341;2.480769230769231;4.884615384615385;2.9615384615384617;58.97679245283018;-2.9373584905660395
2021-02-13T20:00:41Z;4.69811320754717;433.8867924528302;0.0;98.23333333333333;50.588679245283025;98.782641509434;1.9622641509433962;4.39622641509434;2.4716981132075473;60.00528301886789;-3.168490566037736
2021-02-13T21:01:07Z;5.471698113207547;439.0566037735849;0.0;98.27118644067797;49.26882352941177;98.76784313725493;2.358490566037736;4.547169811320755;2.7547169811320753;60.60039215686276;-3.404117647058824
2021-02-13T22:00:14Z;5.150943396226415;437.20754716981133;0.0;98.16666666666667;49.07113207547171;98.73773584905648;1.9607843137254901;3.823529411764706;2.1176470588235294;61.54867924528301;-3.6139622641509415
2021-02-13T23:01:07Z;10.711538461538462;473.59615384615387;0.0;98.13559322033899;49.026153846153846;98.77480769230773;2.056603773584906;3.3773584905660377;2.2830188679245285;62.094999999999985;-3.712884615384616
2021-02-14T00:00:31Z;9.056603773584905;462.9622641509434;0.0;98.15;48.93396226415096;98.78415094339623;2.1153846153846154;5.384615384615385;2.4615384615384617;63.314339622641505;-3.868113207547168
2021-02-14T01:00:50Z;8.384615384615385;458.28846153846155;0.0;98.08474576271186;48.94865384615384;98.78519230769227;2.3773584905660377;4.377358490566038;2.69811320754717;63.97557692307691;-4.006153846153848
2021-02-14T02:00:02Z;24.71698113207547;565.1698113207547;0.0;98.1;49.017307692307696;98.7657692307693;2.0576923076923075;3.4038461538461537;2.3653846153846154;63.96211538461539;-4.090769230769234
2021-02-14T03:00:44Z;23.76923076923077;558.9230769230769;0.0;98.0;48.9178846153846;98.76807692307693;2.019230769230769;3.826923076923077;2.326923076923077;64.01615384615386;-4.1601923076923075
2021-02-14T04:00:00Z;43.339622641509436;687.8867924528302;0.0;98.13559322033899;48.71648148148147;98.82166666666669;2.0576923076923075;4.384615384615385;2.25;64.24685185185186;-4.297962962962964
2021-02-14T05:00:43Z;28.634615384615383;591.4615384615385;0.0;98.03389830508475;48.948679245283;98.83339622641513;1.9259259259259258;3.9444444444444446;2.3518518518518516;64.3401886792453;-4.379811320754717
2021-02-14T06:01:01Z;21.641509433962263;545.2830188679245;24.75;98.03333333333333;49.7146153846154;98.87596153846152;1.7547169811320755;2.509433962264151;2.018867924528302;64.5025;-4.538076923076922
2021-02-14T07:00:17Z;17.67924528301887;519.5094339622641;137.1320754716981;98.29411764705883;50.003773584905666;98.90641509433968;1.75;3.326923076923077;2.1153846153846154;65.62811320754717;-4.39547169811321
2021-02-14T08:00:42Z;2.9038461538461537;421.3076923076923;225.56603773584905;99.0;49.992075471698115;98.93509433962267;2.4339622641509435;5.339622641509434;3.0377358490566038;64.04188679245281;-3.7801886792452835
2021-02-14T09:00:53Z;3.230769230769231;423.71153846153845;310.0576923076923;99.0;49.51615384615384;98.93749999999994;3.641509433962264;8.88679245283019;4.188679245283019;59.57134615384614;-2.6796153846153845
2021-02-14T10:00:13Z;2.769230769230769;420.59615384615387;941.6981132075472;99.0;48.18396226415092;98.90924528301889;2.0384615384615383;4.115384615384615;2.4423076923076925;53.43320754716982;0.15698113207547168
2021-02-14T11:00:32Z;2.169811320754717;416.7169811320755;655.4716981132076;99.0;50.23679245283019;98.87811320754716;3.4150943396226414;4.754716981132075;4.09433962264151;52.02641509433963;0.7681132075471703
2021-02-14T12:00:58Z;1.9038461538461537;415.09615384615387;516.5384615384615;99.0;50.505576923076916;98.8507692307692;2.0377358490566038;3.6792452830188678;2.3207547169811322;54.87173076923078;1.3161538461538456
2021-02-14T13:00:14Z;1.7547169811320755;414.41509433962267;319.75471698113205;98.96666666666667;51.14962264150943;98.83301886792447;2.4615384615384617;5.461538461538462;3.0384615384615383;51.25905660377359;1.2632075471698117
2021-02-14T14:00:31Z;4.113207547169812;430.0943396226415;281.3207547169811;98.84745762711864;50.37584905660377;98.82075471698111;2.4150943396226414;4.39622641509434;2.792452830188679;55.36603773584905;1.0066037735849056
2021-02-14T15:00:51Z;2.2115384615384617;417.0576923076923;174.23076923076923;98.76271186440678;50.3826923076923;98.82749999999997;3.2641509433962264;5.660377358490566;4.09433962264151;58.69211538461539;0.7746153846153849
2021-02-14T16:00:31Z;1.0188679245283019;408.50943396226415;29.37735849056604;98.55932203389831;51.00339622641509;98.8315094339623;5.8076923076923075;10.076923076923077;7.173076923076923;62.20037735849053;0.04849056603773586
2021-02-14T17:01:03Z;2.358490566037736;417.62264150943395;0.0;98.7457627118644;49.85519230769232;98.86923076923073;5.90566037735849;10.849056603773585;7.566037735849057;63.08192307692309;-0.6674999999999998
2021-02-14T18:00:28Z;3.4423076923076925;425.88461538461536;0.0;98.83720930232558;50.19490566037736;98.8583018867924;6.384615384615385;10.211538461538462;8.096153846153847;63.67603773584908;-0.9286792452830183
2021-02-14T19:00:47Z;3.5283018867924527;426.45283018867923;0.0;98.0;49.695961538461546;98.86634615384622;5.811320754716981;10.622641509433961;7.7924528301886795;66.88653846153846;-1.1542307692307694
2021-02-14T20:00:13Z;3.811320754716981;427.6981132075472;0.0;98.65517241379311;49.47396226415094;98.83792452830191;9.288461538461538;14.884615384615385;11.961538461538462;66.84396226415093;-1.4471698113207543
2021-02-14T21:00:59Z;14.0;494.2641509433962;0.0;98.58333333333333;48.980000000000004;98.82326923076931;9.50943396226415;16.71698113207547;11.377358490566039;69.27153846153847;-1.6203846153846155
2021-02-14T22:00:12Z;20.576923076923077;538.3269230769231;0.0;98.7741935483871;48.96698113207548;98.82943396226419;15.557692307692308;21.673076923076923;17.403846153846153;70.75716981132074;-1.569433962264151
2021-02-14T23:00:41Z;31.566037735849058;610.1698113207547;0.0;99.0;48.50875;98.83250000000001;18.09433962264151;24.358490566037737;20.50943396226415;71.9425;-1.5225
2021-02-15T07:31:30Z;60.264150943396224;798.9056603773585;196.24137931034483;99.0;49.76827586206896;98.67068965517241;21.625;29.375;24.0;71.82793103448279;-1.3920689655172418
2021-02-15T08:00:30Z;75.74509803921569;900.3333333333334;348.135593220339;98.84210526315789;48.72559322033898;98.6581355932203;15.724137931034482;24.20689655172414;20.344827586206897;65.91322033898302;-0.19627118644067804
2021-02-15T09:00:17Z;157.9433962264151;1404.377358490566;546.0166666666667;98.58333333333333;51.392166666666675;98.65933333333338;13.0;23.779661016949152;16.983050847457626;64.696;1.149
2021-02-15T10:00:21Z;174.84615384615384;1501.6153846153845;435.8333333333333;98.59322033898304;51.08433333333336;98.62366666666662;14.95;26.3;18.766666666666666;63.149666666666675;2.005666666666667
2021-02-15T11:00:31Z;205.45283018867926;1537.811320754717;384.8474576271187;98.57627118644068;49.865762711864406;98.56915254237302;26.483333333333334;35.53333333333333;30.6;63.74423728813559;2.122542372881356
2021-02-15T12:00:14Z;195.55769230769232;1498.4615384615386;503.1666666666667;98.57627118644068;50.577000000000005;98.50199999999995;61.28813559322034;69.55932203389831;65.1864406779661;62.75699999999999;2.9629999999999996
2021-02-15T13:00:35Z;142.65384615384616;1336.3846153846155;403.2881355932203;98.37288135593221;50.627966101694916;98.4191525423729;15.466666666666667;24.783333333333335;19.533333333333335;63.303728813559324;3.3994915254237306
2021-02-15T14:00:34Z;116.13207547169812;1165.7358490566037;315.43333333333334;98.52542372881356;49.69533333333333;98.36899999999991;15.508474576271187;25.949152542372882;20.694915254237287;64.09883333333333;3.697666666666668
2021-02-15T15:00:45Z;98.71153846153847;1051.1538461538462;109.2542372881356;98.45762711864407;51.54593220338983;98.36406779661026;17.683333333333334;30.6;22.883333333333333;66.03050847457627;3.5794915254237285
2021-02-15T16:00:38Z;148.9056603773585;1377.7358490566037;15.09375;98.50847457627118;52.48593749999999;98.34312499999999;16.74576271186441;27.28813559322034;21.847457627118644;74.35625;3.2253125
2021-02-15T17:21:33Z;125.9423076923077;1229.75;0.0;98.44067796610169;51.6688888888889;98.29407407407408;17.15625;28.59375;22.96875;79.81555555555558;2.5996296296296286
2021-02-15T18:01:09Z;85.01886792452831;960.7358490566038;0.0;98.55932203389831;51.26260869565218;98.27000000000002;66.14814814814815;79.92592592592592;72.33333333333333;80.45782608695653;2.6699999999999995
2021-02-15T19:04:46Z;68.9622641509434;855.7547169811321;0.0;98.4;49.31799999999999;98.20800000000003;27.043478260869566;44.65217391304348;34.56521739130435;80.96066666666667;2.8653333333333335
2021-02-15T20:12:52Z;56.72549019607843;776.0196078431372;0.0;98.45762711864407;49.5;98.19399999999999;21.333333333333332;40.93333333333333;30.8;82.476;2.9539999999999997
2021-02-15T21:03:37Z;40.60377358490566;669.8490566037735;0.0;98.37288135593221;49.85944444444445;98.18166666666669;18.6;36.8;28.0;83.73166666666667;2.9783333333333326
2021-02-15T22:05:02Z;32.07692307692308;613.5961538461538;0.0;98.63333333333334;48.585;98.18375;25.555555555555557;47.888888888888886;38.166666666666664;79.74000000000001;3.62625
2021-02-15T23:00:28Z;26.30188679245283;575.7358490566038;0.0;98.32203389830508;49.69166666666666;98.1825;4.5;6.25;5.5;82.86166666666666;3.874166666666666
2021-02-16T00:02:23Z;22.51923076923077;551.0961538461538;0.0;98.44067796610169;48.89;98.15555555555554;3.3333333333333335;5.75;3.8333333333333335;82.16888888888889;4.058888888888887
2021-02-16T01:09:38Z;12.76923076923077;487.38461538461536;0.0;98.57627118644068;48.71307692307692;98.11153846153844;4.0;7.555555555555555;4.333333333333333;83.1776923076923;3.9984615384615383
2021-02-16T02:00:25Z;60.57446808510638;801.2553191489362;0.0;98.48333333333333;48.85450000000001;98.05999999999997;8.076923076923077;10.76923076923077;8.692307692307692;83.43900000000001;4.044999999999999
2021-02-16T03:06:20Z;60.75925925925926;802.7592592592592;0.0;98.62711864406779;48.11722222222222;98.00611111111112;9.45;11.15;10.3;83.78888888888889;4.0811111111111105
2021-02-16T04:01:32Z;62.698113207547166;815.5094339622641;0.0;98.59322033898304;49.40882352941176;97.96529411764708;13.944444444444445;18.5;16.88888888888889;83.57176470588236;4.05
2021-02-16T05:04:08Z;52.65384615384615;749.2115384615385;0.0;98.71186440677967;49.58500000000001;97.93166666666667;10.941176470588236;15.352941176470589;14.058823529411764;83.45333333333333;4.071666666666666
2021-02-16T06:06:47Z;138.64150943396226;1235.3207547169811;6.133333333333334;98.66101694915254;51.084666666666664;97.86333333333332;8.583333333333334;15.0;10.0;82.66666666666666;4.320666666666667
2021-02-16T07:00:08Z;261.4339622641509;1617.4716981132076;47.4;98.66666666666667;52.169999999999995;97.83733333333333;7.333333333333333;11.4;8.533333333333333;82.71333333333334;4.473333333333333
2021-02-16T08:02:21Z;172.82692307692307;1478.8076923076924;155.0;98.54237288135593;49.864374999999995;97.750625;8.466666666666667;13.533333333333333;11.0;83.36062500000001;5.24875
2021-02-16T09:00:26Z;176.0566037735849;1481.698113207547;427.8076923076923;98.57627118644068;54.82538461538461;97.70884615384617;14.8125;22.1875;18.4375;81.53346153846154;6.714615384615384
2021-02-16T10:00:26Z;152.03773584905662;1393.5849056603774;1226.875;98.49152542372882;50.42854166666668;97.65374999999999;8.423076923076923;11.961538461538462;9.576923076923077;75.51916666666666;8.050625
2021-02-16T11:00:03Z;224.17307692307693;1572.173076923077;4465.106382978724;98.52542372881356;48.59382978723404;97.50468085106374;6.520833333333333;10.145833333333334;8.770833333333334;66.59063829787233;10.01425531914894
2021-02-16T12:00:19Z;217.66037735849056;1564.245283018868;6151.745098039216;98.45762711864407;48.89607843137254;97.42490196078431;6.0212765957446805;11.212765957446809;8.0;63.168039215686285;11.199019607843134
2021-02-16T13:00:07Z;428.77358490566036;1769.0;4359.4375;98.40677966101696;48.42958333333334;97.39500000000002;6.313725490196078;10.607843137254902;7.352941176470588;63.91520833333335;10.873125
2021-02-16T14:00:25Z;679.4423076923077;1959.8076923076924;1766.090909090909;98.40677966101696;49.22681818181818;97.32727272727274;6.354166666666667;10.395833333333334;7.75;68.38499999999999;9.905227272727274
2021-02-16T15:00:24Z;1267.3396226415093;2259.245283018868;180.7;98.47457627118644;50.63766666666667;97.22766666666666;8.25;13.477272727272727;10.272727272727273;73.39433333333335;8.261333333333333
2021-02-16T16:01:35Z;1391.6538461538462;2316.5;38.58064516129032;98.33898305084746;51.43677419354837;97.15709677419355;7.033333333333333;11.7;8.333333333333334;77.49838709677418;7.273225806451611
2021-02-16T17:01:02Z;1758.811320754717;2489.6792452830186;0.07692307692307693;98.49152542372882;50.613076923076925;97.1423076923077;7.806451612903226;12.483870967741936;9.806451612903226;78.60615384615383;6.390769230769231
2021-02-16T18:13:00Z;4230.903846153846;3642.3653846153848;0.0;98.52542372881356;49.24555555555555;97.16888888888886;10.461538461538462;15.538461538461538;12.23076923076923;79.71111111111112;5.704444444444444
2021-02-16T19:08:33Z;4616.301886792453;3822.7924528301887;0.0;98.49152542372882;50.94;97.20333333333333;12.0;19.444444444444443;17.11111111111111;80.86666666666666;5.1866666666666665
2021-02-16T20:16:15Z;3925.9423076923076;3502.6153846153848;0.0;98.35593220338983;50.325;97.225;14.0;24.333333333333332;16.333333333333332;80.93;4.84
2021-02-16T21:19:57Z;4221.66037735849;3641.943396226415;0.0;98.5;49.32;97.22;18.5;43.0;22.0;80.92;4.87
2021-02-16T22:21:15Z;4465.875;3758.625;0.0;98.38983050847457;48.605000000000004;97.255;22.0;41.0;30.0;81.93;5.199999999999999
2021-02-16T23:20:59Z;5099.0;4045.9583333333335;0.0;98.47457627118644;49.67999999999999;97.29400000000001;13.0;24.0;16.0;84.202;5.4079999999999995
2021-02-17T00:16:17Z;4434.438596491228;3737.5087719298244;0.0;98.52542372881356;48.18;97.3575;15.0;21.2;21.2;83.7225;6.265
2021-02-17T01:02:54Z;3715.0172413793102;3404.103448275862;0.0;98.44067796610169;48.84285714285714;97.38571428571427;4.25;10.25;6.5;84.72714285714285;6.7299999999999995
2021-02-17T02:06:02Z;3533.603448275862;3318.6724137931033;0.0;98.54237288135593;49.189;97.41900000000001;4.0;8.714285714285714;4.571428571428571;83.82;7.0489999999999995
2021-02-17T03:03:45Z;3158.3035714285716;3144.3214285714284;0.0;98.57627118644068;48.92;97.45866666666667;2.5;2.6;2.6;83.76866666666666;7.102666666666665
2021-02-17T04:00:51Z;3444.3050847457625;3276.2033898305085;0.0;98.52542372881356;48.85333333333334;97.53999999999998;3.8666666666666667;5.933333333333334;4.933333333333334;83.26266666666666;7.081333333333333
2021-02-17T05:15:53Z;3898.4821428571427;3491.2321428571427;0.0;98.57627118644068;49.033;97.56899999999999;2.6;3.0;3.0;83.58399999999999;6.9319999999999995
2021-02-17T06:04:04Z;3932.508474576271;3506.6271186440677;29.0;98.62711864406779;50.763333333333335;97.60000000000001;2.8;5.1;3.0;84.29777777777777;6.9444444444444455
2021-02-17T07:06:09Z;4391.0526315789475;3719.8245614035086;150.0;98.47457627118644;50.36071428571428;97.60357142857143;2.6666666666666665;3.111111111111111;3.111111111111111;83.60642857142857;7.109999999999999
2021-02-17T08:02:49Z;4961.882352941177;3980.4117647058824;188.6875;98.50847457627118;51.78875000000001;97.63937500000003;2.5714285714285716;3.5714285714285716;2.7857142857142856;81.0925;7.495000000000001
2021-02-17T09:00:29Z;802.0;1953.5;394.0;98.55;50.16666666666667;97.68222222222224;1.4375;2.1875;1.75;81.67333333333335;8.348888888888888
2021-04-12T08:47:58Z;1407.142857142857;2290.4285714285716;514.0;98.55932203389831;66.13461538461539;97.72923076923077;3.0;3.7777777777777777;3.7777777777777777;106.7176923076923;4.267692307692308
2021-04-12T09:00:58Z;3089.375;3110.375;2244.2758620689656;98.49152542372882;66.83586206896553;97.74982758620698;3.0;5.923076923076923;3.8461538461538463;105.32827586206898;4.667068965517242
2021-04-12T10:00:44Z;1673.0;2450.0;553.0;98.50847457627118;67.97904761904759;97.75571428571428;2.6379310344827585;5.0344827586206895;3.7413793103448274;107.02095238095238;4.902380952380953
2021-04-13T11:03:30Z;4233.0;3644.3333333333335;1176.0357142857142;98.54237288135593;71.17357142857144;97.71928571428568;1.9523809523809523;4.190476190476191;3.9047619047619047;60.9925;12.400714285714285
2021-04-13T12:00:49Z;4049.5;3560.25;3059.6271186440677;98.47457627118644;71.70542372881356;97.80576271186447;7.214285714285714;10.75;8.892857142857142;59.815254237288165;11.453389830508476
2021-04-13T13:00:24Z;193.0;1462.6666666666667;968.7966101694915;98.35;68.18830508474574;97.90644067796606;7.067796610169491;9.220338983050848;8.559322033898304;64.34050847457627;9.399322033898306
2021-04-13T14:00:23Z;224.4406779661017;1569.406779661017;1079.2033898305085;98.45762711864407;75.03016949152541;97.92237288135594;6.5423728813559325;10.338983050847459;8.0;70.6957627118644;8.760508474576271
2021-04-13T15:00:22Z;565.1206896551724;1867.396551724138;1688.6274509803923;98.47457627118644;67.40117647058825;97.94784313725492;6.169491525423729;10.338983050847459;7.966101694915254;73.50235294117648;8.77019607843137
2021-04-13T16:00:21Z;1201.448275862069;2223.0;498.0833333333333;98.55;50.46383333333336;97.96366666666655;5.176470588235294;7.549019607843137;6.098039215686274;67.73050000000002;8.293833333333332
2021-04-13T17:00:31Z;2573.08;2867.68;197.1;98.50847457627118;50.17250000000001;97.98516666666667;5.333333333333333;8.45;6.583333333333333;67.20083333333335;7.728499999999996
2021-04-13T18:00:48Z;2191.7966101694915;2691.0;7.135593220338983;98.43103448275862;49.61474576271185;98.04186440677975;4.9;7.9;6.1;68.14796610169489;7.219661016949154
2021-04-13T19:00:45Z;2251.271186440678;2716.0677966101694;0.0;98.58333333333333;49.57118644067797;98.08677966101699;7.322033898305085;11.271186440677965;8.966101694915254;70.02610169491527;6.753728813559321
2021-04-13T20:00:44Z;2339.103448275862;2757.103448275862;0.0;98.54237288135593;49.21694915254238;98.09271186440674;7.593220338983051;12.457627118644067;9.559322033898304;69.19898305084747;6.775254237288138
2021-04-13T21:00:43Z;2690.315789473684;2925.5087719298244;0.0;98.52542372881356;49.43525423728813;98.11661016949147;13.389830508474576;19.423728813559322;15.610169491525424;71.0330508474576;6.154237288135593
2021-04-13T22:00:42Z;2730.8793103448274;2945.1724137931033;0.0;98.61016949152543;49.35762711864407;98.08016949152544;6.576271186440678;12.372881355932204;8.711864406779661;73.41813559322033;5.675932203389832
2021-04-13T23:00:41Z;2989.2982456140353;3065.877192982456;0.0;98.45762711864407;49.24983050847456;98.03406779661032;7.9491525423728815;13.220338983050848;10.576271186440678;75.26474576271187;5.133898305084746
2021-04-14T00:00:40Z;3251.4827586206898;3189.7758620689656;0.0;98.7457627118644;49.35830508474576;97.9979661016948;9.033898305084746;17.10169491525424;12.11864406779661;75.3037288135593;4.684237288135592
2021-04-14T01:00:39Z;3576.3508771929824;3338.280701754386;0.0;98.98305084745763;49.3542372881356;97.94932203389835;7.52542372881356;13.389830508474576;10.474576271186441;76.51271186440677;4.2806779661016945
2021-04-14T02:00:38Z;3751.4827586206898;3419.4655172413795;0.0;98.72881355932203;49.418666666666645;97.90383333333337;8.0;14.677966101694915;10.542372881355933;76.28733333333334;3.970333333333331
2021-04-14T03:00:55Z;3987.2631578947367;3531.7719298245615;0.0;98.75;49.529830508474575;97.8774576271186;8.5;16.033333333333335;11.916666666666666;76.98576271186437;3.63728813559322
2021-04-14T04:00:19Z;4296.627118644068;3677.5254237288136;17.3;98.79661016949153;50.66016666666666;97.84683333333334;10.254237288135593;19.10169491525424;14.067796610169491;76.59150000000002;3.3718333333333352